Dewpoint
-2 -3 -4 -6 -6 -7 -8 -8 -8 -7 -6 -7 -5 -9 -11 -4 -4 -4 -4 -5 -5 -9 -12 -6 -5 -7 -11 -12 -13 -14 -12 -10 -11 -11 -13 -13 -13 -13 -8 -7 -4 -3 1 3 8
-1 -2 -4 -6 -6 -7 -7 -7 -8 -5 -8 -4 -5 -11 -4 -4 -4 -5 -7 -6 -7 -8 -6 -7 -8 -12 -12 -12 -14 -13 -13 -13 -14 -15 -14 -15 -15 -12 -7 -8 -6 -3 -1 5 8
-1 -2 -3 -5 -6 -7 -7 -8 -6 -7 -5 -4 -6 -7 -4 -4 -0 -6 -7 -6 -9 -10 -5 -8 -12 -12 -12 -13 -14 -14 -12 -14 -15 -15 -16 -16 -15 -14 -12 -10 -8 -6 -2 4 6
-1 -2 -3 -4 -6 -6 -7 -7 -5 -7 -5 -4 -5 -6 -4 -7 -4 -5 -7 -6 -8 -11 -5 -8 -10 -12 -12 -11 -13 -13 -15 -16 -15 -13 -13 -13 -13 -13 -13 -11 -9 -7 -2 2 4
-1 -2 -3 -4 -6 -7 -7 -5 -7 -5 -4 -2 -7 -6 -5 -1 -6 -5 -6 -5 -5 -5 -7 -9 -11 -12 -13 -14 -14 -13 -13 -14 -13 -11 -10 -9 -11 -12 -12 -11 -10 -6 -2 2 4
-1 -2 -4 -5 -6 -6 -5 -7 -5 -5 -1 -4 -6 -5 -3 -4 -5 -6 -6 -6 -6 -8 -9 -10 -10 -11 -13 -12 -10 -10 -8 -8 -8 -8 -8 -7 -9 -9 -9 -9 -9 -6 -3 -0 1
-2 -3 -4 -5 -6 -6 -6 -6 -6 -1 -2 -4 -5 -6 -1 -5 -6 -7 -7 -6 -5 -5 -8 -7 -8 -10 -9 -6 -8 -8 -7 -7 -7 -6 -6 -7 -9 -10 -9 -9 -8 -6 -5 -2 0
-3 -4 -4 -5 -5 -6 -6 -6 -2 -1 -3 -3 -5 -5 -3 -5 -5 -7 -8 -7 -6 -4 -5 -6 -6 -6 -6 -6 -8 -8 -7 -5 -7 -6 -6 -6 -4 -9 -7 -7 -7 -8 -5 -3 -1
-4 -5 -5 -5 -6 -7 -6 -2 -2 -2 -3 -3 -4 1 -6 -7 -7 -8 -7 -7 -4 -3 -4 -6 -5 -7 -5 -6 -6 -8 -6 -9 -6 -7 -7 -7 -6 -6 -6 -6 -7 -8 -7 -5 -2
-3 -4 -4 -5 -6 -6 -3 -3 -2 -2 -3 -4 -1 -4 -8 -7 -7 -6 -6 -4 -4 -4 -5 -6 -7 -6 -8 -8 -7 -10 -11 -9 -9 -7 -8 -7 -6 -7 -5 -5 -5 -5 -5 -5 -4
-2 -3 -4 -5 -6 -3 -3 -3 -2 -0 -4 -5 -7 -6 -8 -8 -7 -6 -5 -5 -5 -5 -4 -6 -5 -6 -7 -8 -9 -10 -10 -8 -8 -7 -6 -5 -6 -5 -5 -5 -5 -5 -4 -3 -1
-1 -2 -4 -4 -3 -3 -2 2 2 -3 -5 -5 -5 -5 -5 -6 -7 -5 -5 -5 -5 -6 -6 -8 -5 -6 -8 -8 -8 -7 -5 -5 -5 -5 -5 -4 -5 -5 -5 -4 -4 -4 -3 -2 -1
2 2 -2 -3 -3 -2 5 3 -5 -4 -6 -5 -5 -6 -5 -5 -4 -4 -5 -6 -8 -8 -9 -6 -5 -7 -6 -5 -5 -4 -3 -2 -2 -4 -4 -4 -4 -4 -5 -4 -4 -4 -3 -2 -2
1 2 1 -1 0 2 4 -4 -6 -3 -3 -6 -6 -6 -5 -5 -4 -4 -3 -5 -7 -8 -9 -6 -6 -5 -4 -3 -3 -2 -3 -2 -1 -2 -2 -3 -2 -3 -4 -3 -2 -0 0 -0 -1
1 -1 -1 1 2 -0 -0 -4 -6 1 1 -4 -5 -5 -6 -4 -4 -3 -3 -5 -7 -5 -4 -4 -5 -3 -2 -1 -2 -1 -1 -1 -1 -0 -2 -2 -4 -1 -4 -2 -1 -0 0 1 1
-2 -2 -2 -0 2 0 -3 -3 -3 5 2 -3 -5 -4 -3 -3 -3 -3 -4 -3 -3 -6 -6 -4 -4 -3 -2 -2 -2 -2 0 -1 0 0 3 -2 -1 -0 -2 -1 -0 -0 1 1 1
-2 -2 -2 -1 3 -2 -4 1 -0 4 -3 -3 -3 -4 -3 -2 -2 -2 -2 -1 -1 0 -0 -2 -2 -2 -1 -1 -1 -1 0 4 5 4 4 0 -0 2 0 -1 -0 0 1 1 1
-2 -2 -2 -3 -4 -4 -4 0 3 1 -3 -4 -4 -3 -2 -2 -1 -1 -2 -0 -1 -1 -2 -0 3 -1 -2 -1 0 0 1 5 5 4 2 -0 -2 2 -1 -1 -0 -0 0 1 1
-3 -2 -1 -2 -4 -6 1 3 -0 -3 -3 -3 -3 -2 -1 -1 -1 0 1 0 0 0 1 1 1 -1 -1 -1 -0 1 3 0 3 6 5 -2 1 1 -1 -0 -0 -0 -0 1 1
3 2 4 -1 -3 -3 2 2 0 -2 -3 -4 -1 -0 0 -0 0 0 1 0 1 -1 -0 0 3 -0 -2 -1 0 -1 -0 4 4 9 4 -4 -3 -2 2 1 -0 -0 -0 1 1
3 0 3 -4 -3 -1 3 1 -0 -1 -1 -2 -1 -0 0 1 0 1 1 1 -0 -0 -2 -3 -0 0 -3 -1 -2 -0 1 2 1 2 5 4 -1 -2 -2 -2 -1 -1 -1 -0 1
4 2 0 -2 -0 -1 3 -0 -1 -0 1 0 0 0 1 1 2 2 2 2 1 0 -0 -0 -0 1 -4 -2 -1 -1 0 0 4 2 3 5 2 -3 -4 -2 -1 -2 -1 1 1
2 4 2 2 6 3 2 1 0 1 0 1 2 1 1 2 4 2 3 3 1 1 2 0 2 1 -1 1 0 0 -1 -1 -0 2 3 6 2 -4 -3 -1 -1 -1 -1 -0 -0
3 8 4 4 3 0 2 2 2 2 1 1 2 1 2 2 2 4 4 3 3 2 1 2 0 -0 1 -2 -4 -2 -3 -4 -2 4 4 2 -1 -3 -4 -3 -3 -3 -1 -0 -0
3 5 5 6 4 2 1 1 2 2 1 1 1 1 2 4 3 3 2 3 2 2 2 2 3 -0 -0 -3 -4 -3 -2 -2 -1 -1 3 1 -0 -2 -2 -2 -2 -2 -0 -0 -0
2 5 5 5 3 2 3 2 1 1 0 1 1 1 0 3 -1 2 1 -0 0 2 2 1 4 4 3 -1 -4 -2 -3 -2 -2 -1 -1 -1 -1 -2 -2 -3 -2 -1 -1 -0 0
1 4 5 4 3 3 3 2 1 1 3 0 1 0 3 0 1 1 2 1 -0 1 3 3 5 4 7 3 3 7 2 -3 -2 -2 -2 1 -1 -3 -2 -1 0 1 1 2 3
Wind_Speed
16 15 16 15 15 14 12 11 10 10 10 10 7 6 7 6 6 3 1 3 3 5 5 5 6 6 6 4 3 5 6 7 6 10 8 8 7 3 3 8 1 3 9 16 17
15 15 14 14 15 14 12 11 11 12 12 10 7 8 10 6 4 2 4 5 1 3 5 6 10 10 7 6 5 12 4 10 5 7 11 9 5 8 8 8 10 9 8 14 17
13 14 13 14 13 12 12 12 13 14 14 9 8 12 9 4 5 8 5 6 1 7 5 5 8 7 7 10 5 4 10 8 6 3 7 8 5 5 5 7 9 12 12 16 16
12 12 11 12 11 11 13 14 16 16 12 8 8 12 8 4 1 3 5 8 5 9 5 6 9 9 11 7 5 8 8 6 7 4 1 6 8 6 5 12 7 8 11 15 16
10 10 10 10 12 14 15 17 18 15 10 8 10 10 6 6 5 3 5 7 5 1 4 3 6 6 4 7 8 11 9 10 9 7 2 3 5 3 6 11 7 7 10 13 14
8 9 10 12 14 16 19 19 17 12 9 9 12 10 7 5 1 4 4 5 2 2 1 2 2 3 6 11 5 9 10 8 8 7 5 7 7 9 8 5 7 8 11 12 12
7 9 12 14 17 19 21 20 15 11 10 11 12 8 9 5 1 3 4 2 4 3 1 1 3 7 10 6 7 10 8 9 8 9 3 8 10 12 6 5 6 8 11 12 12
8 11 15 18 22 23 22 17 13 10 12 12 12 10 1 2 2 4 2 2 2 1 3 5 4 6 2 8 8 11 9 11 7 6 5 11 12 10 4 6 11 12 10 12 12
11 15 19 22 24 23 20 16 12 11 11 12 6 5 3 2 2 3 3 5 4 4 3 5 5 5 6 11 10 8 9 2 9 4 3 6 5 11 5 9 13 13 15 13 12
14 17 20 22 23 22 18 14 12 12 10 8 3 6 3 1 3 4 4 5 7 8 6 5 7 9 11 10 7 7 5 5 4 6 5 4 2 6 2 1 3 5 6 5 9
16 18 20 21 21 20 16 13 8 5 7 4 9 2 7 3 5 5 5 6 9 10 10 6 11 2 11 7 7 4 4 3 4 4 6 3 1 4 4 8 9 10 10 10 10
17 18 19 20 19 17 15 7 2 10 10 7 8 7 3 4 8 6 3 9 10 8 4 8 4 5 2 4 3 2 5 1 1 3 5 3 8 6 8 8 12 14 17 17 16
14 15 16 16 15 13 6 4 18 10 8 6 4 3 3 5 4 5 2 3 4 4 6 6 9 2 3 1 5 2 6 5 9 4 8 10 10 10 9 12 13 14 13 12 12
15 14 16 16 11 10 5 8 12 4 5 6 5 3 2 2 4 6 3 2 1 3 6 6 4 2 1 1 7 8 3 7 9 8 9 13 6 12 13 10 10 10 9 8 8
12 12 13 13 9 8 9 10 8 5 3 4 5 2 3 2 4 5 5 2 3 6 5 6 4 2 2 5 6 6 7 8 9 10 13 12 9 13 13 11 9 8 8 9 10
13 10 9 7 10 10 10 9 5 5 3 6 4 6 9 9 6 5 5 6 3 4 5 8 3 4 6 4 4 7 9 9 8 7 7 8 6 12 12 10 7 7 7 10 11
14 11 9 10 7 11 9 7 5 4 3 7 8 5 6 7 8 6 5 5 1 6 6 6 4 4 6 10 5 8 8 5 4 5 4 7 6 8 9 7 7 7 7 8 7
15 12 10 9 10 12 9 6 7 5 5 3 7 9 4 7 4 4 6 9 10 5 2 4 7 5 5 5 6 4 6 3 5 4 6 6 5 7 10 10 8 6 5 4 3
15 12 8 9 10 10 10 7 2 6 6 10 12 9 7 4 2 4 8 7 7 9 3 3 4 5 5 5 6 4 2 4 5 2 4 8 7 8 10 9 6 4 1 0 3
10 9 7 10 9 9 7 2 2 2 3 12 7 4 6 7 6 3 2 2 4 8 5 3 2 0 2 4 3 5 3 4 2 3 4 4 7 6 13 10 7 6 3 3 6
10 11 8 10 10 10 6 2 3 6 3 3 3 5 5 5 3 3 3 5 2 4 4 5 2 4 4 2 7 2 1 3 4 3 4 5 4 7 2 5 9 3 5 9 10
8 5 10 14 10 6 4 5 3 9 4 3 2 3 5 5 3 3 5 5 2 3 3 5 2 2 4 3 4 5 5 5 4 6 3 5 8 6 3 1 3 7 10 8 11
5 6 10 14 5 6 4 6 4 8 4 5 3 1 3 5 3 6 6 4 3 3 6 5 0 3 5 6 5 4 2 4 5 3 11 8 7 1 4 5 9 14 8 10 10
6 3 6 8 4 10 10 9 7 3 4 3 7 6 8 6 4 7 7 4 2 3 3 2 2 3 5 9 8 8 10 10 10 8 12 12 17 16 13 12 15 18 12 10 13
2 2 4 7 7 10 10 10 10 6 3 7 4 4 8 4 7 5 7 6 4 3 1 3 3 4 7 11 12 14 13 14 16 16 15 18 19 16 17 13 18 14 10 14 18
4 4 2 3 7 10 4 9 12 5 8 8 7 8 6 8 2 7 5 3 3 4 2 1 1 4 4 6 12 17 16 16 17 13 12 14 15 11 15 16 14 17 18 21 21
3 8 5 4 8 8 7 9 9 10 2 2 11 8 9 9 9 9 7 5 3 2 4 1 1 2 4 9 14 6 3 7 7 7 11 11 12 15 11 14 21 25 22 19 14
Wind_Direction
272 263 255 247 241 238 234 229 218 202 183 172 179 163 147 147 134 78 13 299 259 226 228 232 198 184 177 160 196 267 170 135 131 140 136 157 135 101 90 126 158 121 59 139 158
269 261 249 238 232 230 225 217 201 184 170 172 172 158 149 139 133 93 3 358 299 207 173 178 164 165 160 154 180 264 122 87 48 81 140 162 149 135 178 142 148 145 123 139 157
265 257 244 234 228 221 211 201 184 172 167 174 165 164 168 176 271 63 8 23 86 146 155 180 159 194 167 175 184 291 83 120 132 91 147 139 138 151 155 183 151 157 154 164 171
258 249 240 230 216 206 194 184 172 166 166 170 165 174 176 259 158 5 29 41 100 125 151 153 180 181 160 153 118 95 101 132 116 142 168 179 128 173 221 89 111 127 152 167 179
254 240 226 210 193 190 181 172 165 162 165 159 163 175 184 231 72 358 28 23 40 188 233 208 187 154 102 132 134 122 123 119 139 161 150 109 169 119 161 135 152 148 161 173 184
240 220 201 189 181 176 166 163 157 162 155 150 159 175 222 223 338 323 343 23 58 212 197 267 8 337 122 128 149 135 141 147 168 169 170 242 159 206 131 168 183 188 194 186 185
211 193 184 174 167 163 157 155 157 152 145 145 156 177 243 87 260 318 319 336 9 15 11 40 143 184 148 139 140 151 152 169 193 187 152 242 204 221 130 188 208 201 217 205 193
178 170 166 160 156 154 152 152 150 141 140 145 149 177 284 224 255 326 275 278 332 38 119 139 176 125 218 123 175 192 228 186 137 189 165 253 234 137 181 266 246 219 204 214 199
149 151 150 151 152 151 153 148 141 134 139 151 147 233 135 301 262 294 191 196 189 165 145 143 169 169 170 195 190 201 222 177 157 215 265 248 31 82 328 268 253 239 203 205 214
139 143 146 150 151 152 150 148 128 123 136 151 225 225 181 181 233 191 197 168 178 163 166 203 201 196 213 219 260 143 186 177 290 112 247 238 309 43 3 145 167 203 228 213 212
138 144 147 149 151 152 151 135 135 143 185 357 139 83 117 115 143 160 188 191 182 215 215 210 243 357 40 360 359 11 298 275 110 82 299 186 112 87 65 106 97 99 106 114 108
136 138 145 152 156 159 157 221 111 120 118 108 108 97 121 173 142 137 189 219 207 209 206 218 82 56 16 10 341 305 295 105 116 104 309 186 138 115 103 78 86 94 100 103 103
141 145 152 155 159 167 184 174 139 147 132 120 117 96 89 100 53 54 302 229 235 216 227 2 82 104 295 75 307 114 327 14 320 309 256 265 165 155 125 110 99 93 94 91 91
141 138 149 155 157 168 176 173 166 178 180 140 169 110 176 157 75 44 32 4 228 128 108 71 104 149 213 60 330 293 59 303 280 263 247 209 222 166 156 131 107 84 77 79 86
159 142 144 157 161 166 193 179 191 283 183 153 113 88 113 18 120 62 37 228 160 148 254 108 159 179 236 16 327 24 315 286 279 263 270 202 255 135 162 157 127 90 80 81 78
170 157 150 157 168 177 157 158 172 237 143 153 154 144 98 89 75 94 96 86 50 134 70 105 105 14 18 287 281 299 265 241 263 254 246 247 259 151 178 146 124 107 90 83 82
175 173 174 164 176 171 154 147 209 271 145 154 152 177 112 112 79 98 110 73 55 192 173 167 89 108 351 295 177 295 296 271 220 198 270 80 251 65 98 98 104 126 112 94 94
181 182 185 186 169 170 166 212 233 19 181 95 146 155 135 135 101 151 148 98 50 323 157 229 165 347 7 11 330 338 324 352 302 336 327 140 269 120 121 128 128 128 118 119 111
181 180 179 180 176 172 209 212 106 180 149 161 164 174 145 139 164 128 75 75 38 19 17 304 104 123 42 12 325 11 14 360 280 201 256 255 123 154 159 154 171 151 198 8 292
166 166 190 180 173 169 225 306 144 54 140 173 179 270 163 148 160 160 111 46 86 29 333 51 205 356 73 260 135 339 11 260 171 289 281 293 298 317 168 188 183 230 267 305 289
161 186 202 180 162 194 207 152 150 145 194 242 170 170 139 141 140 112 88 110 38 74 14 1 294 124 244 32 348 251 221 294 303 300 294 300 304 56 26 228 236 263 290 299 306
177 191 173 162 190 198 195 155 135 151 164 126 88 111 157 147 138 114 136 63 90 359 29 35 343 275 4 76 353 322 329 302 288 296 234 291 282 42 20 118 276 281 298 287 293
191 110 162 172 171 196 145 136 157 174 155 167 141 165 177 147 125 122 118 98 77 19 20 15 144 295 184 162 170 275 284 297 283 327 265 259 271 123 183 251 259 264 293 298 295
175 119 153 205 294 189 183 172 144 89 118 111 117 138 138 143 116 151 130 138 108 60 45 310 317 301 312 326 322 295 283 272 265 256 267 278 287 300 326 341 336 331 325 306 303
206 139 154 180 211 200 187 179 163 152 151 174 156 195 156 141 143 146 133 142 170 145 154 309 264 302 294 303 305 301 295 283 272 261 259 280 285 296 326 347 335 326 310 296 304
185 159 136 132 164 176 150 199 183 138 164 167 185 155 162 156 204 171 161 196 185 164 199 132 286 337 272 298 313 309 300 284 267 270 287 298 292 357 314 322 319 306 311 315 321
169 152 174 172 180 176 189 175 172 144 48 203 147 142 99 80 76 65 59 59 71 183 200 281 289 332 275 343 319 287 242 338 308 251 310 283 296 311 330 341 345 343 335 327 339
Height
1504 1504 1505 1505 1506 1508 1508 1509 1511 1512 1513 1514 1515 1515 1515 1515 1514 1513 1512 1511 1509 1507 1506 1508 1508 1507 1507 1506 1502 1499 1495 1500 1502 1504 1514 1517 1516 1519 1521 1523 1525 1526 1525 1529 1537
1501 1501 1501 1502 1503 1505 1507 1509 1510 1512 1513 1514 1515 1515 1515 1514 1513 1513 1512 1510 1508 1506 1508 1509 1507 1506 1504 1505 1502 1496 1490 1500 1504 1506 1511 1516 1513 1519 1520 1523 1524 1527 1531 1532 1537
1498 1498 1498 1500 1502 1504 1506 1508 1509 1511 1513 1514 1514 1515 1515 1515 1514 1512 1511 1509 1507 1507 1508 1508 1507 1504 1505 1503 1502 1497 1498 1508 1512 1512 1513 1516 1517 1518 1516 1518 1522 1523 1529 1533 1537
1496 1496 1497 1498 1500 1503 1505 1507 1509 1511 1513 1514 1514 1515 1516 1516 1511 1514 1513 1510 1509 1508 1511 1510 1507 1503 1502 1501 1503 1505 1509 1511 1515 1520 1517 1517 1517 1518 1515 1519 1524 1524 1529 1533 1535
1494 1495 1495 1497 1499 1502 1504 1507 1509 1511 1513 1514 1515 1517 1518 1515 1515 1515 1513 1513 1512 1512 1510 1508 1505 1502 1500 1502 1503 1509 1514 1516 1519 1522 1520 1521 1518 1517 1516 1521 1525 1527 1529 1531 1534
1492 1493 1494 1496 1498 1502 1505 1508 1510 1513 1513 1514 1516 1518 1517 1513 1517 1516 1515 1514 1514 1512 1511 1509 1506 1505 1504 1504 1506 1513 1516 1518 1521 1521 1523 1519 1520 1519 1518 1521 1524 1527 1527 1529 1531
1490 1491 1493 1496 1498 1502 1506 1509 1512 1513 1514 1515 1517 1518 1517 1516 1517 1516 1515 1515 1514 1512 1510 1510 1511 1510 1511 1513 1515 1515 1515 1518 1519 1519 1517 1519 1516 1516 1517 1521 1522 1523 1526 1529 1529
1490 1491 1494 1496 1500 1503 1507 1510 1512 1513 1514 1516 1517 1518 1515 1517 1516 1516 1516 1516 1515 1516 1515 1515 1515 1513 1511 1515 1515 1513 1509 1511 1514 1518 1519 1519 1505 1509 1517 1520 1519 1520 1524 1527 1528
1491 1493 1495 1499 1502 1505 1509 1511 1513 1514 1515 1517 1520 1518 1515 1516 1517 1517 1517 1517 1518 1518 1516 1515 1515 1513 1515 1510 1511 1508 1506 1510 1518 1518 1515 1513 1504 1508 1517 1517 1516 1517 1520 1524 1527
1494 1496 1498 1501 1504 1507 1510 1513 1514 1516 1517 1519 1519 1521 1518 1518 1518 1517 1517 1518 1518 1518 1517 1515 1512 1508 1505 1503 1510 1504 1509 1516 1512 1514 1514 1510 1508 1512 1516 1514 1514 1516 1518 1522 1526
1497 1499 1501 1503 1506 1509 1512 1514 1519 1520 1518 1515 1515 1517 1517 1519 1517 1518 1518 1519 1518 1516 1510 1512 1507 1505 1507 1512 1512 1511 1512 1511 1510 1516 1516 1511 1511 1517 1518 1516 1517 1519 1522 1525 1528
1499 1501 1503 1506 1509 1511 1512 1513 1513 1516 1519 1519 1519 1519 1519 1518 1517 1518 1519 1517 1515 1508 1512 1510 1511 1517 1518 1517 1515 1515 1515 1513 1514 1517 1519 1511 1514 1520 1522 1523 1523 1523 1525 1530 1534
1502 1503 1506 1508 1510 1513 1514 1514 1514 1515 1515 1520 1520 1519 1520 1519 1519 1518 1517 1515 1510 1510 1509 1507 1517 1523 1521 1519 1519 1516 1518 1520 1522 1516 1517 1514 1515 1521 1524 1526 1527 1529 1532 1534 1536
1504 1505 1507 1510 1515 1513 1515 1514 1515 1515 1509 1519 1517 1519 1520 1519 1519 1519 1518 1518 1515 1512 1510 1518 1523 1523 1521 1523 1523 1521 1523 1526 1524 1521 1513 1509 1511 1514 1519 1525 1529 1533 1536 1537 1538
1506 1507 1509 1511 1512 1514 1515 1515 1517 1517 1521 1520 1517 1519 1518 1518 1519 1520 1520 1518 1514 1517 1520 1524 1524 1524 1523 1528 1527 1523 1526 1525 1522 1518 1510 1506 1511 1507 1514 1522 1529 1536 1539 1540 1541
1507 1508 1510 1512 1512 1513 1515 1516 1519 1517 1526 1517 1516 1517 1518 1519 1519 1520 1521 1521 1521 1518 1516 1523 1527 1526 1528 1529 1529 1527 1524 1518 1517 1511 1523 1502 1508 1511 1510 1516 1529 1538 1542 1541 1542
1508 1509 1511 1512 1514 1514 1516 1518 1518 1517 1515 1518 1515 1516 1516 1519 1522 1519 1520 1522 1518 1524 1524 1524 1526 1529 1531 1524 1524 1520 1518 1523 1526 1524 1523 1508 1517 1512 1519 1525 1530 1538 1542 1542 1543
1508 1510 1511 1512 1513 1514 1517 1516 1519 1515 1509 1512 1514 1516 1518 1520 1525 1524 1520 1523 1526 1521 1519 1523 1535 1528 1532 1532 1531 1526 1526 1535 1545 1530 1517 1514 1518 1512 1523 1531 1537 1540 1542 1542 1543
1509 1511 1512 1512 1514 1515 1518 1516 1510 1511 1511 1514 1516 1517 1522 1523 1522 1525 1527 1530 1534 1531 1527 1528 1530 1533 1535 1533 1532 1526 1530 1532 1535 1540 1541 1513 1512 1521 1526 1531 1535 1537 1539 1541 1543
1510 1512 1513 1513 1514 1516 1514 1515 1512 1515 1514 1513 1515 1516 1519 1521 1522 1521 1526 1536 1535 1538 1535 1535 1534 1533 1534 1535 1534 1532 1534 1536 1532 1557 1544 1507 1509 1501 1525 1528 1532 1534 1536 1539 1541
1510 1511 1511 1513 1515 1516 1512 1511 1516 1520 1518 1515 1516 1519 1516 1522 1520 1526 1531 1539 1538 1538 1537 1535 1536 1535 1534 1533 1533 1530 1531 1535 1533 1537 1544 1540 1522 1515 1517 1520 1523 1530 1536 1538 1539
1509 1505 1510 1513 1515 1511 1511 1513 1518 1519 1521 1520 1518 1517 1519 1522 1525 1528 1531 1534 1542 1540 1537 1542 1538 1541 1534 1537 1539 1537 1535 1535 1545 1544 1539 1547 1538 1521 1523 1527 1531 1533 1535 1537 1538
1505 1507 1511 1512 1512 1513 1516 1518 1517 1519 1519 1520 1522 1522 1524 1524 1532 1530 1535 1544 1543 1542 1542 1543 1541 1542 1533 1539 1539 1538 1535 1539 1543 1551 1552 1552 1539 1522 1524 1529 1530 1531 1530 1533 1534
1505 1508 1513 1514 1510 1508 1512 1514 1519 1522 1523 1522 1523 1524 1525 1528 1527 1533 1537 1543 1545 1545 1548 1548 1541 1542 1547 1539 1536 1540 1537 1535 1538 1548 1544 1536 1526 1518 1518 1523 1525 1525 1527 1530 1531
1504 1505 1507 1509 1510 1508 1510 1511 1514 1519 1522 1522 1523 1522 1525 1532 1530 1534 1536 1543 1546 1548 1548 1547 1548 1542 1541 1538 1536 1535 1535 1533 1534 1531 1538 1531 1526 1521 1522 1525 1528 1529 1531 1530 1528
1504 1507 1509 1509 1509 1509 1514 1511 1512 1518 1519 1521 1520 1523 1524 1531 1530 1533 1534 1537 1539 1547 1546 1548 1550 1553 1551 1541 1537 1535 1532 1529 1525 1528 1527 1527 1526 1525 1527 1527 1527 1528 1527 1527 1527
1504 1505 1507 1513 1510 1510 1511 1512 1513 1519 1524 1520 1522 1525 1530 1533 1535 1537 1540 1541 1542 1544 1547 1550 1552 1555 1557 1551 1549 1544 1533 1527 1526 1526 1528 1532 1526 1525 1525 1529 1531 1531 1530 1530 1529